Location: ???????????
(55.5758°N, 38.4970°E)
Time: 17:57:01
(UTC+00:00)

H-2A R/B - Pass Details

Date: 15 November 2025
Orbit: 728 x 830 km, 98.3° (Epoch: 14 December)

Event Time Altitude Azimuth Distance (km) Brightness Sun altitude
Rises 01:12:20 0° 15° (NNE) 3,202 5.6 -31.8°
Reaches altitude 10° 01:14:38 10° 14° (NNE) 2,263 4.7 -31.4°
Enters shadow 01:16:45 26° 13° (NNE) 1,443 3.6 -31.1°
